QPF
0.00 0.00 0.01 0.01 0.01 0.02 0.02 0.03 0.02 0.01 0.01 0.01 0.01 0.01 0.01 0.01 0.01 0.01 0.01 0.02 0.01 0.01 0.02 0.02 0.03 0.03 0.04 0.02 0.02 0.02 0.02 0.03 0.03 0.05 0.07 0.08 0.06 0.04
0.00 0.00 0.00 0.01 0.01 0.02 0.03 0.03 0.03 0.02 0.01 0.02 0.02 0.01 0.01 0.01 0.02 0.02 0.02 0.02 0.02 0.02 0.01 0.01 0.01 0.01 0.02 0.02 0.01 0.01 0.01 0.01 0.02 0.02 0.04 0.09 0.09 0.07
0.01 0.01 0.00 0.00 0.01 0.01 0.03 0.04 0.03 0.03 0.02 0.02 0.02 0.02 0.02 0.02 0.02 0.02 0.01 0.01 0.01 0.01 0.01 0.01 0.00 0.00 0.01 0.02 0.02 0.02 0.01 0.01 0.01 0.01 0.02 0.03 0.06 0.07
0.02 0.01 0.01 0.01 0.01 0.01 0.04 0.05 0.03 0.02 0.02 0.02 0.02 0.02 0.02 0.02 0.01 0.01 0.01 0.01 0.01 0.01 0.01 0.01 0.00 0.00 0.01 0.01 0.01 0.02 0.02 0.02 0.02 0.01 0.01 0.02 0.02 0.03
0.02 0.02 0.02 0.01 0.01 0.01 0.03 0.05 0.03 0.03 0.03 0.02 0.02 0.02 0.02 0.01 0.01 0.01 0.01 0.00 0.01 0.01 0.01 0.01 0.00 0.00 0.00 0.01 0.01 0.01 0.01 0.01 0.01 0.01 0.01 0.01 0.01 0.01
0.03 0.03 0.02 0.02 0.01 0.01 0.03 0.05 0.04 0.04 0.04 0.03 0.02 0.02 0.02 0.02 0.01 0.01 0.01 0.01 0.00 0.01 0.01 0.01 0.01 0.00 0.00 0.00 0.00 0.00 0.00 0.01 0.01 0.00 0.01 0.01 0.01 0.02
0.04 0.03 0.03 0.03 0.04 0.04 0.04 0.05 0.04 0.03 0.04 0.03 0.02 0.02 0.02 0.02 0.02 0.01 0.01 0.01 0.00 0.00 0.00 0.00 0.01 0.00 0.01 0.01 0.01 0.01 0.00 0.01 0.01 0.00 0.00 0.01 0.01 0.03
0.04 0.04 0.04 0.04 0.04 0.05 0.04 0.06 0.06 0.03 0.03 0.02 0.02 0.02 0.02 0.02 0.02 0.02 0.01 0.01 0.00 0.00 0.00 0.00 0.00 0.00 0.00 0.00 0.01 0.01 0.01 0.02 0.03 0.02 0.01 0.01 0.02 0.03
0.03 0.04 0.03 0.04 0.04 0.04 0.04 0.04 0.05 0.04 0.03 0.02 0.02 0.02 0.02 0.02 0.02 0.01 0.01 0.01 0.01 0.01 0.00 0.00 0.00 0.00 0.00 0.00 0.01 0.01 0.01 0.02 0.04 0.04 0.03 0.03 0.04 0.05
0.03 0.04 0.04 0.04 0.04 0.04 0.03 0.03 0.02 0.03 0.03 0.03 0.02 0.02 0.03 0.03 0.02 0.02 0.01 0.01 0.01 0.01 0.01 0.01 0.00 0.00 0.00 0.00 0.00 0.01 0.01 0.01 0.03 0.04 0.04 0.04 0.05 0.06
0.03 0.03 0.03 0.04 0.05 0.05 0.03 0.02 0.03 0.02 0.02 0.02 0.03 0.02 0.02 0.03 0.03 0.02 0.01 0.01 0.01 0.02 0.02 0.02 0.01 0.01 0.01 0.01 0.01 0.01 0.01 0.01 0.02 0.03 0.04 0.03 0.03 0.04
0.02 0.03 0.03 0.04 0.05 0.05 0.04 0.03 0.02 0.02 0.02 0.02 0.02 0.02 0.02 0.02 0.03 0.03 0.02 0.01 0.01 0.02 0.02 0.02 0.02 0.02 0.01 0.01 0.01 0.01 0.01 0.01 0.01 0.02 0.04 0.04 0.04 0.03
0.03 0.02 0.03 0.03 0.04 0.05 0.04 0.05 0.05 0.04 0.04 0.03 0.03 0.02 0.02 0.02 0.02 0.02 0.01 0.01 0.01 0.02 0.03 0.03 0.02 0.02 0.02 0.01 0.01 0.01 0.01 0.01 0.01 0.02 0.03 0.05 0.05 0.04
0.02 0.02 0.02 0.04 0.04 0.04 0.04 0.05 0.04 0.04 0.03 0.02 0.01 0.02 0.02 0.02 0.02 0.02 0.01 0.01 0.01 0.01 0.02 0.02 0.02 0.02 0.02 0.02 0.01 0.01 0.01 0.01 0.02 0.02 0.03 0.05 0.07 0.07
0.02 0.02 0.02 0.03 0.04 0.04 0.04 0.04 0.03 0.03 0.02 0.02 0.01 0.01 0.02 0.02 0.02 0.02 0.02 0.01 0.01 0.01 0.01 0.01 0.01 0.01 0.01 0.01 0.01 0.01 0.01 0.01 0.02 0.03 0.04 0.03 0.05 0.06
0.03 0.03 0.02 0.03 0.04 0.04 0.04 0.04 0.03 0.03 0.03 0.02 0.01 0.02 0.03 0.03 0.02 0.02 0.02 0.02 0.01 0.01 0.01 0.01 0.01 0.01 0.01 0.01 0.01 0.01 0.01 0.02 0.02 0.03 0.03 0.04 0.04 0.05
0.03 0.02 0.02 0.02 0.03 0.04 0.03 0.02 0.02 0.03 0.03 0.02 0.02 0.01 0.02 0.03 0.03 0.03 0.02 0.02 0.02 0.02 0.01 0.01 0.02 0.02 0.02 0.01 0.02 0.02 0.03 0.04 0.03 0.03 0.04 0.05 0.05 0.05
0.03 0.02 0.02 0.01 0.02 0.02 0.03 0.03 0.03 0.03 0.02 0.02 0.02 0.02 0.02 0.03 0.03 0.04 0.03 0.03 0.02 0.02 0.01 0.01 0.02 0.03 0.03 0.03 0.04 0.04 0.04 0.04 0.04 0.05 0.06 0.05 0.04 0.04
0.03 0.02 0.02 0.02 0.02 0.02 0.02 0.03 0.03 0.03 0.03 0.03 0.02 0.03 0.03 0.03 0.03 0.03 0.03 0.03 0.03 0.02 0.01 0.01 0.01 0.02 0.02 0.02 0.03 0.03 0.03 0.04 0.05 0.05 0.05 0.04 0.04 0.05
0.04 0.03 0.02 0.02 0.02 0.02 0.02 0.03 0.05 0.05 0.04 0.04 0.03 0.03 0.03 0.04 0.04 0.04 0.04 0.04 0.04 0.03 0.02 0.02 0.01 0.01 0.02 0.02 0.02 0.03 0.03 0.03 0.04 0.05 0.05 0.04 0.03 0.03
0.04 0.03 0.03 0.02 0.02 0.02 0.02 0.03 0.05 0.05 0.05 0.04 0.04 0.03 0.03 0.04 0.05 0.04 0.04 0.04 0.04 0.04 0.03 0.03 0.02 0.02 0.02 0.01 0.01 0.02 0.02 0.03 0.03 0.04 0.05 0.05 0.04 0.03
0.03 0.03 0.04 0.04 0.03 0.02 0.02 0.02 0.03 0.05 0.05 0.04 0.04 0.03 0.03 0.03 0.03 0.03 0.04 0.04 0.05 0.05 0.05 0.04 0.04 0.04 0.03 0.03 0.02 0.02 0.03 0.03 0.03 0.04 0.05 0.06 0.05 0.03
0.04 0.04 0.04 0.04 0.04 0.03 0.04 0.03 0.03 0.03 0.04 0.04 0.04 0.04 0.03 0.03 0.03 0.03 0.03 0.03 0.04 0.06 0.06 0.06 0.05 0.05 0.05 0.05 0.04 0.03 0.03 0.03 0.03 0.04 0.05 0.06 0.06 0.05
MSLP
1016.99 1017.01 1017.02 1016.99 1016.89 1016.69 1016.38 1015.99 1015.52 1015.00 1014.47 1013.93 1013.41 1012.90 1012.39 1011.89 1011.37 1010.84 1010.30 1009.75 1009.22 1008.73 1008.28 1007.89 1007.54 1007.25 1006.99 1006.75 1006.53 1006.32 1006.12 1005.92 1005.74 1005.57 1005.43 1005.30 1005.19 1005.09
1017.36 1017.34 1017.30 1017.22 1017.07 1016.82 1016.48 1016.06 1015.56 1015.02 1014.47 1013.91 1013.37 1012.83 1012.29 1011.74 1011.18 1010.60 1010.02 1009.43 1008.87 1008.35 1007.88 1007.47 1007.12 1006.81 1006.54 1006.29 1006.04 1005.80 1005.57 1005.35 1005.14 1004.97 1004.82 1004.71 1004.63 1004.56
1017.64 1017.56 1017.47 1017.34 1017.14 1016.84 1016.47 1016.01 1015.50 1014.96 1014.40 1013.84 1013.28 1012.72 1012.15 1011.56 1010.95 1010.31 1009.66 1009.01 1008.39 1007.82 1007.32 1006.88 1006.50 1006.18 1005.90 1005.65 1005.40 1005.15 1004.90 1004.67 1004.46 1004.29 1004.16 1004.06 1004.00 1003.96
1017.86 1017.73 1017.58 1017.38 1017.13 1016.79 1016.39 1015.92 1015.41 1014.87 1014.32 1013.76 1013.21 1012.63 1012.03 1011.40 1010.73 1010.02 1009.30 1008.57 1007.88 1007.24 1006.68 1006.20 1005.79 1005.46 1005.17 1004.90 1004.66 1004.41 1004.17 1003.95 1003.74 1003.58 1003.45 1003.37 1003.33 1003.31
1018.03 1017.85 1017.64 1017.40 1017.09 1016.72 1016.30 1015.82 1015.31 1014.79 1014.26 1013.72 1013.16 1012.58 1011.96 1011.29 1010.56 1009.78 1008.97 1008.17 1007.39 1006.68 1006.05 1005.51 1005.07 1004.71 1004.41 1004.15 1003.91 1003.67 1003.44 1003.23 1003.03 1002.86 1002.74 1002.67 1002.63 1002.62
1018.18 1017.95 1017.70 1017.40 1017.05 1016.65 1016.21 1015.73 1015.23 1014.72 1014.21 1013.68 1013.14 1012.56 1011.92 1011.21 1010.43 1009.59 1008.72 1007.83 1006.98 1006.18 1005.49 1004.90 1004.41 1004.02 1003.71 1003.45 1003.21 1002.99 1002.77 1002.56 1002.37 1002.20 1002.07 1001.99 1001.94 1001.93
1018.33 1018.05 1017.75 1017.41 1017.03 1016.60 1016.14 1015.65 1015.15 1014.66 1014.15 1013.64 1013.10 1012.52 1011.87 1011.14 1010.33 1009.45 1008.51 1007.57 1006.65 1005.79 1005.04 1004.39 1003.87 1003.45 1003.12 1002.85 1002.62 1002.40 1002.19 1001.98 1001.79 1001.61 1001.47 1001.37 1001.31 1001.28
1018.47 1018.16 1017.82 1017.44 1017.02 1016.56 1016.08 1015.58 1015.08 1014.57 1014.07 1013.56 1013.02 1012.44 1011.78 1011.04 1010.21 1009.30 1008.34 1007.36 1006.40 1005.50 1004.70 1004.01 1003.45 1003.00 1002.65 1002.36 1002.12 1001.90 1001.69 1001.48 1001.28 1001.10 1000.94 1000.82 1000.74 1000.70
1018.60 1018.26 1017.89 1017.49 1017.04 1016.55 1016.04 1015.52 1014.99 1014.47 1013.95 1013.42 1012.87 1012.28 1011.62 1010.88 1010.05 1009.14 1008.17 1007.18 1006.20 1005.28 1004.45 1003.73 1003.14 1002.65 1002.27 1001.96 1001.70 1001.47 1001.25 1001.03 1000.82 1000.63 1000.46 1000.34 1000.26 1000.22
1018.74 1018.38 1017.99 1017.56 1017.09 1016.58 1016.04 1015.48 1014.92 1014.36 1013.81 1013.25 1012.68 1012.07 1011.41 1010.66 1009.84 1008.95 1007.99 1007.01 1006.04 1005.11 1004.26 1003.52 1002.89 1002.37 1001.94 1001.59 1001.30 1001.04 1000.80 1000.57 1000.36 1000.17 1000.01 999.89 999.83 999.82
1018.88 1018.51 1018.12 1017.68 1017.19 1016.65 1016.08 1015.49 1014.89 1014.29 1013.69 1013.09 1012.49 1011.86 1011.18 1010.44 1009.63 1008.76 1007.83 1006.87 1005.91 1004.98 1004.12 1003.35 1002.68 1002.10 1001.62 1001.22 1000.87 1000.57 1000.30 1000.06 999.85 999.67 999.54 999.46 999.45 999.49
1019.02 1018.67 1018.28 1017.84 1017.35 1016.81 1016.22 1015.59 1014.95 1014.30 1013.66 1013.02 1012.37 1011.71 1011.02 1010.28 1009.48 1008.62 1007.72 1006.78 1005.83 1004.90 1004.03 1003.22 1002.50 1001.86 1001.31 1000.83 1000.42 1000.07 999.76 999.50 999.30 999.14 999.06 999.04 999.09 999.22
1019.19 1018.86 1018.49 1018.08 1017.60 1017.06 1016.46 1015.82 1015.15 1014.46 1013.77 1013.08 1012.40 1011.70 1010.99 1010.24 1009.45 1008.60 1007.71 1006.79 1005.85 1004.91 1004.01 1003.16 1002.38 1001.66 1001.03 1000.48 999.99 999.58 999.23 998.95 998.75 998.63 998.60 998.66 998.80 999.02
1019.40 1019.10 1018.78 1018.39 1017.95 1017.43 1016.84 1016.19 1015.51 1014.79 1014.07 1013.35 1012.63 1011.90 1011.16 1010.40 1009.60 1008.76 1007.87 1006.95 1006.01 1005.06 1004.13 1003.23 1002.38 1001.60 1000.88 1000.25 999.69 999.21 998.83 998.53 998.34 998.25 998.27 998.40 998.63 998.94
1019.65 1019.41 1019.13 1018.80 1018.39 1017.91 1017.35 1016.72 1016.03 1015.31 1014.57 1013.82 1013.07 1012.32 1011.56 1010.78 1009.97 1009.12 1008.23 1007.31 1006.36 1005.40 1004.44 1003.50 1002.60 1001.76 1000.98 1000.27 999.65 999.13 998.70 998.39 998.20 998.14 998.21 998.40 998.70 999.09
1019.97 1019.78 1019.56 1019.28 1018.93 1018.49 1017.97 1017.36 1016.70 1015.98 1015.24 1014.48 1013.72 1012.95 1012.17 1011.37 1010.55 1009.70 1008.82 1007.89 1006.94 1005.97 1005.00 1004.04 1003.12 1002.24 1001.42 1000.67 1000.02 999.46 999.02 998.70 998.52 998.47 998.56 998.79 999.13 999.57
1020.35 1020.22 1020.05 1019.82 1019.52 1019.13 1018.65 1018.08 1017.45 1016.75 1016.03 1015.27 1014.51 1013.74 1012.95 1012.15 1011.33 1010.48 1009.60 1008.69 1007.75 1006.80 1005.84 1004.90 1003.98 1003.11 1002.29 1001.55 1000.90 1000.34 999.90 999.59 999.41 999.37 999.46 999.70 1000.04 1000.47
1020.78 1020.69 1020.57 1020.39 1020.13 1019.78 1019.33 1018.80 1018.20 1017.55 1016.85 1016.12 1015.37 1014.61 1013.84 1013.05 1012.24 1011.41 1010.56 1009.68 1008.78 1007.87 1006.96 1006.07 1005.21 1004.39 1003.62 1002.93 1002.32 1001.80 1001.39 1001.10 1000.93 1000.89 1000.97 1001.18 1001.48 1001.86
1021.23 1021.18 1021.09 1020.93 1020.70 1020.37 1019.96 1019.47 1018.90 1018.28 1017.62 1016.93 1016.22 1015.49 1014.75 1014.00 1013.23 1012.44 1011.63 1010.80 1009.97 1009.13 1008.31 1007.50 1006.74 1006.01 1005.35 1004.74 1004.22 1003.77 1003.42 1003.17 1003.01 1002.97 1003.02 1003.18 1003.41 1003.71
1021.67 1021.64 1021.56 1021.41 1021.18 1020.87 1020.48 1020.01 1019.49 1018.91 1018.30 1017.66 1017.00 1016.33 1015.64 1014.94 1014.22 1013.50 1012.75 1012.01 1011.26 1010.53 1009.81 1009.13 1008.48 1007.89 1007.34 1006.86 1006.45 1006.10 1005.82 1005.62 1005.50 1005.45 1005.47 1005.57 1005.72 1005.92
1022.07 1022.04 1021.95 1021.79 1021.55 1021.24 1020.86 1020.41 1019.92 1019.39 1018.84 1018.26 1017.67 1017.07 1016.46 1015.83 1015.19 1014.55 1013.90 1013.24 1012.60 1011.98 1011.39 1010.84 1010.33 1009.87 1009.47 1009.12 1008.82 1008.58 1008.39 1008.25 1008.16 1008.12 1008.12 1008.16 1008.23 1008.33
1022.39 1022.34 1022.22 1022.04 1021.78 1021.46 1021.08 1020.66 1020.21 1019.73 1019.24 1018.74 1018.23 1017.72 1017.19 1016.66 1016.12 1015.57 1015.01 1014.47 1013.94 1013.43 1012.96 1012.54 1012.16 1011.84 1011.56 1011.34 1011.15 1011.01 1010.90 1010.83 1010.77 1010.74 1010.73 1010.73 1010.74 1010.76
1022.60 1022.52 1022.37 1022.15 1021.87 1021.54 1021.17 1020.77 1020.36 1019.94 1019.52 1019.11 1018.69 1018.27 1017.85 1017.42 1016.98 1016.54 1016.09 1015.65 1015.23 1014.83 1014.47 1014.16 1013.89 1013.68 1013.51 1013.38 1013.30 1013.23 1013.19 1013.17 1013.15 1013.14 1013.13 1013.11 1013.08 1013.05
Thickness
5657 5656 5654 5654 5654 5653 5651 5649 5644 5639 5638 5642 5644 5647 5647 5647 5647 5647 5647 5647 5646 5646 5646 5645 5645 5645 5645 5645 5645 5645 5645 5644 5644 5644 5645 5645 5645 5645
5653 5651 5651 5650 5650 5649 5648 5647 5645 5641 5637 5639 5639 5642 5642 5643 5642 5642 5642 5641 5641 5641 5641 5640 5640 5640 5640 5639 5639 5640 5639 5639 5638 5638 5639 5639 5639 5639
5648 5647 5647 5647 5646 5645 5645 5643 5642 5640 5636 5635 5636 5637 5637 5637 5637 5636 5636 5636 5635 5635 5635 5635 5634 5634 5634 5634 5634 5633 5633 5633 5632 5632 5632 5633 5633 5633
5644 5643 5643 5643 5642 5641 5641 5640 5639 5637 5635 5632 5631 5631 5632 5632 5631 5630 5630 5630 5629 5629 5629 5629 5629 5628 5628 5628 5628 5627 5627 5627 5626 5626 5626 5627 5627 5627
5641 5640 5639 5638 5637 5637 5637 5636 5635 5635 5632 5629 5627 5626 5626 5626 5624 5623 5623 5623 5623 5623 5623 5623 5622 5623 5623 5623 5622 5622 5621 5621 5620 5620 5621 5621 5621 5621
5637 5637 5636 5636 5635 5635 5634 5633 5631 5629 5627 5624 5622 5621 5620 5620 5618 5616 5615 5616 5616 5617 5616 5616 5616 5616 5617 5617 5617 5616 5615 5615 5615 5615 5615 5615 5615 5615
5630 5631 5633 5633 5634 5633 5632 5630 5628 5624 5622 5619 5617 5615 5614 5613 5612 5611 5610 5608 5608 5609 5609 5609 5610 5610 5610 5611 5611 5610 5610 5610 5609 5609 5610 5610 5610 5610
5623 5625 5627 5628 5629 5629 5629 5628 5626 5623 5619 5616 5614 5612 5611 5610 5608 5606 5603 5601 5601 5603 5601 5602 5603 5603 5604 5605 5605 5605 5604 5604 5604 5604 5604 5604 5604 5604
5617 5618 5620 5622 5622 5622 5623 5623 5621 5621 5620 5617 5612 5611 5608 5607 5604 5601 5598 5597 5597 5598 5596 5596 5596 5597 5599 5599 5599 5599 5599 5599 5599 5598 5598 5598 5598 5598
5611 5612 5612 5614 5615 5614 5614 5614 5614 5615 5614 5613 5611 5609 5608 5606 5603 5601 5597 5593 5592 5592 5591 5589 5590 5591 5593 5593 5593 5593 5593 5592 5592 5592 5592 5592 5592 5592
5604 5605 5606 5607 5608 5608 5607 5606 5606 5607 5607 5607 5606 5604 5602 5601 5598 5594 5590 5586 5585 5585 5585 5583 5584 5584 5585 5586 5587 5587 5586 5586 5586 5586 5586 5586 5586 5586
5597 5598 5600 5601 5602 5601 5600 5599 5597 5598 5598 5598 5597 5596 5594 5593 5592 5590 5587 5583 5580 5578 5579 5577 5576 5575 5576 5579 5580 5580 5580 5580 5580 5580 5580 5580 5580 5579
5589 5590 5592 5594 5595 5594 5593 5592 5592 5591 5590 5589 5588 5587 5586 5585 5584 5583 5582 5579 5576 5574 5574 5571 5569 5568 5567 5568 5571 5572 5572 5572 5572 5573 5573 5573 5573 5573
5582 5583 5585 5587 5588 5587 5586 5585 5584 5583 5581 5581 5579 5577 5577 5576 5576 5575 5575 5574 5572 5571 5569 5567 5564 5562 5560 5560 5561 5563 5564 5564 5564 5565 5566 5566 5565 5565
5575 5576 5577 5578 5578 5577 5577 5577 5576 5574 5573 5572 5571 5569 5569 5569 5568 5567 5566 5566 5564 5563 5562 5561 5559 5557 5555 5554 5554 5554 5554 5556 5556 5557 5557 5557 5557 5558
5565 5567 5568 5568 5568 5567 5567 5566 5566 5565 5565 5564 5563 5562 5561 5560 5558 5558 5557 5556 5554 5553 5553 5552 5552 5550 5548 5547 5546 5546 5546 5546 5548 5548 5548 5548 5549 5549
5557 5557 5557 5557 5556 5556 5556 5555 5555 5555 5555 5554 5554 5552 5552 5551 5550 5549 5549 5547 5545 5543 5542 5542 5542 5541 5540 5539 5538 5539 5539 5539 5540 5540 5539 5539 5540 5540
5548 5547 5547 5547 5547 5547 5546 5545 5545 5545 5546 5545 5545 5544 5543 5542 5541 5540 5539 5538 5537 5535 5534 5532 5531 5531 5531 5531 5531 5531 5531 5531 5531 5531 5530 5530 5530 5531
5539 5538 5538 5538 5538 5537 5537 5537 5537 5537 5537 5537 5536 5535 5534 5534 5532 5531 5530 5529 5527 5527 5525 5524 5523 5522 5522 5523 5523 5523 5522 5523 5522 5521 5521 5521 5521 5522
5529 5529 5529 5529 5529 5529 5529 5528 5528 5528 5528 5528 5527 5527 5526 5524 5523 5522 5520 5520 5519 5517 5516 5516 5515 5514 5514 5514 5514 5513 5514 5514 5514 5513 5512 5511 5511 5512
5520 5520 5520 5520 5520 5520 5520 5521 5520 5520 5519 5519 5519 5518 5517 5515 5514 5513 5512 5511 5510 5509 5507 5507 5508 5508 5506 5505 5504 5504 5505 5505 5506 5506 5504 5502 5502 5501
5512 5512 5512 5512 5511 5511 5511 5512 5512 5512 5511 5510 5510 5509 5508 5507 5506 5504 5503 5502 5501 5501 5500 5500 5499 5498 5497 5497 5497 5496 5496 5496 5496 5496 5496 5496 5495 5494
5504 5503 5503 5503 5503 5502 5503 5503 5504 5503 5503 5502 5501 5501 5499 5498 5497 5496 5495 5494 5493 5492 5491 5490 5489 5488 5488 5488 5488 5487 5487 5487 5485 5485 5485 5486 5487 5487